Showing default

BSAT-2A, 26720

Orbit data source: Space-Track

BSAT-2A, 26720 is a payload satellite owned by BSAT (JP) in GEO that was launched on Thu, 08 Mar 2001 UTC via an ARIANE 5G launch vehicle from the French Guiana (FRGUI). Payload-class satellites include a variety of spacecraft equipped with specific instruments for various scientific and technological missions. These include communications satellites like Starlink; space stations such as the ISS; scientific satellites like the Hubble; Earth observation satellites from companies like Planet Labs, Umbra, and HawkEye 360; GPS; miniature CubeSats for education and research; and military/defense satellites.

Not visible in the next 10 days
Identifier
26720, 2001-011B
Orbit
GEO
Country
Flag of JPJP / JPN
Related business
Manufacturer
OSCD?
Mission
Partially operational Commercial Communications
Bus & Motor
OSC STAR 1, STAR 30CBP
Mass
1,317 kg wet, 490 kg dry
Launch date (UTC)
2001-03-08 (25 years ago)
Launch vehicle
ARIANE 5G
Launch site
French Guiana (FRGUI)
Object type
Payload
Rocket body
Debris
Shape & HBR
Box + 2 Pan, 8.1 m
Radar Cross Section
21.750 m², Large (>1 m²)

Expand to show TLE details & history
Last TLE update: 17 hours ago

TLE from 17 hours ago
0 BSAT-2A
1 26720U 01011B   25287.59004707 -.00000264  00000-0  00000-0 0  9999
2 26720  10.2088  49.6915 0007925 182.6664 165.8732  0.99181923 89537
Epoch: 2025-10-14T14:09Z
TLE epoch observation values (Epoch: 2025-10-14T14:09:40.066Z)
Latitude
-2.014°
Longitude
162.6172°
Altitude
36,127.457 km
Speed
3.061 km/s
True Right ascension
02h 33m 38s
True Declination
-2° 00' 43"
Sunlit
Object was in daylight at epoch
Visualization orbit readout
Latitude
Unknown
Longitude
Unknown
Altitude
Unknown
Speed
Unknown
Apparent Right ascension
Unknown
Apparent Declination
Unknown
Sunlit
N/A
Visualization observer readout
Local Sidereal Time
01:30:47
Azimuth
Unknown
Elevation
Unknown
Doppler factor
Unknown
Orbital elements
Apogee altitude
36,129.592 km
Perigee altitude
36,062.271 km
Semi-major axis
42,474.068 km
Eccentricity
0.00079
Inclination
10.2088°
RAAN
49.6915°
Arg. of periapsis
182.6664°
True anomaly
165.89534°
Mean anomaly
165.8732°
Eccentric anomaly
165.88427°
Mean motion
0.24795 °/min
Orbital period
1,451.93 mins
BSTAR
0
Loading maneuver chart data...
Computing Atmospheric mass density...
Loading historical data...
Loading historical data...
Loading historical data...
Loading historical data...
Loading historical data...
Loading historical data...
Loading historical data...
Other satellites on launch #11 in the year 2001 (2001-03-08 UTC)

Documentation

Showing up to 5 results
|